UM5-RIBAT (60554 NORAD) Tracking and Keplerian Element Data

This shows tracking and keplerian element data for the satellite.

Feedback or suggestion? Click here.




ElementValue
Catalog60554
NameUM5-RIBAT
Epoch Orbit847
Epoch Day286.63705126
Epoch Year2024
RAAN1.2606
Inclination97.7373
Eccentricity0.0007837
Argument of Perigee332.0745
Mean Anonmoly28.0053
Mean Motion14.94375816
Decay Rate9.779E-05
L11 60554U 24149CQ 24286.63705126 .00009779 00000+0 91262-3 0 9996
L22 60554 97.7373 1.2606 0007837 332.0745 28.0053 14.94375816 8477



Live tracking and technical data element details for UM5-RIBAT (NORAD 60554). UM5-RIBAT can be tracked NOW for your location showing map with azimuth and elevation plus other details from your city location.







IsCatalogInMostPopularTable: catalog: 60554, numindb: 5
Update: records affected: 1



GetName: 60554 UM5-RIBAT

Hit Count: updated at: Wed, 04 Dec 2024 18:32:18 GMT